sat.trackr.live / text

‹ back to catalog

STARLINK-2107

NORAD 47723 · 2021-017B

PAYLOAD ACTIVE UNKNOWN

§ Identity

Operator
Country
US
Launch date
2021-03-04
Launch site
AFETR
Launch vehicle
Mass (kg)
RCS (m²)

Purposes: comms

External: N2YO · Heavens-Above · Gunter

§ Orbital elements

Epoch: 2026-05-25T03:31:11.440416Z

Period
94.01 min
Inclination
53.1592°
Eccentricity
0.0001131
Mean motion
15.31680505 rev/d
Perigee alt
470.0 km
Apogee alt
471.6 km
Semi-major
6,848.9 km
B*
-1.2802e-4
RAAN
131.0982°
Arg perigee
77.5881°
Mean anomaly
282.5247°
Rev number
29,065

§ Raw data

STARLINK-21071 47723U 21017B   26145.14666019 -.00004333  00000+0 -12802-3 0  99952 47723  53.1592 131.0982 0001131  77.5881 282.5247 15.31680505290652

JSON: /api/v1/satellites/47723 · /tle

For live sub-satellite position, see the globe view (requires WebGL).

§ Visibility from observer

Set your observer location to see the next 7 days of passes ≥ 10°. The values pass through the URL so the page stays shareable.

No JS? Fill the form by hand. The geolocation button needs JavaScript.